Flag for U.S.A. Weather past 2 weeks in San Luis Obispo, California, U.S.A.

Now
69 °F

Clear.


Feels Like: 69 °F
Forecast: 57 / 85 °F
Wind: 14 mph from Northwest

Location: San Luis Obispo County-Mc Chesney Field

Current Time: Jul 24, 2014 at 7:45:09 AM

Latest Report: Jul 24, 2014 at 6:56 AM


Visibility: 10 mi

Pressure: 29.92 "Hg

Humidity: 63%

Dew point: 56 °F

Location of San Luis ObispoLocation

Historic Weather in San Luis Obispo — Graph

°F

San Luis Obispo temperature yesterday

Maximum temperature yesterday: 81 °F (at 12:56 PM)
Minimum temperature yesterday: 58 °F (at 4:56 AM)
Average temperature yesterday: 68 °F

Past Weeks' High & Low Weather Summary

 TemperatureHumidityPressure
High81 °F (Jul 23, 12:56 PM)97% (Jul 13, 5:56 AM)30.10 "Hg (Jul 13, 5:56 AM)
Low56 °F (Jul 13, 5:56 AM)42% (Jul 23, 10:56 AM)29.85 "Hg (Jul 13, 11:56 PM)
Average66 °F74%29.99 "Hg
* Reported Jul 9 6:56 AM — Jul 24 6:56 AM, San Luis Obispo, Weather by CustomWeather, © 2014

Note: Actual official high and low records may vary slightly from our data, if they occured in-between our weather recording intervals... More about our weather records

Advertising

San Luis Obispo weather history for previous 24 hours

 ConditionsComfort  
Time TempWeatherWind HumidityBarometerVisibility
6:56 AM
Jul 24
69 °FClear.14 mph63%29.92 "Hg10 mi
5:56 AM65 °FClear.5 mph76%29.92 "Hg10 mi
4:56 AM64 °FClear.14 mph78%29.91 "Hg10 mi
3:56 AM66 °FClear.6 mph73%29.93 "Hg10 mi
2:56 AM63 °FClear.3 mph84%29.94 "Hg10 mi
1:56 AM62 °FClear.5 mph86%29.95 "Hg10 mi
12:56 AM61 °FClear.No wind90%29.96 "Hg10 mi
11:56 PM
Jul 23
62 °FClear.6 mph90%29.97 "Hg10 mi
10:56 PM62 °FClear.8 mph90%29.97 "Hg10 mi
9:56 PM62 °FPassing clouds.9 mph93%29.98 "Hg10 mi
8:56 PM62 °FLow clouds.18 mph93%29.96 "Hg10 mi
7:56 PM64 °FPassing clouds.20 mph90%29.96 "Hg10 mi
6:56 PM69 °FPassing clouds.25 mph76%29.96 "Hg10 mi
5:56 PM72 °FSunny.25 mph66%29.96 "Hg10 mi
4:56 PM74 °FSunny.25 mph60%29.98 "Hg10 mi
3:56 PM76 °FSunny.26 mph56%29.98 "Hg10 mi
2:56 PM79 °FSunny.25 mph48%30.01 "Hg10 mi
1:56 PM81 °FSunny.22 mph44%30.02 "Hg10 mi
12:56 PM81 °FSunny.24 mph42%30.03 "Hg10 mi
11:56 AM80 °FSunny.21 mph44%30.04 "Hg10 mi
10:56 AM80 °FSunny.17 mph42%30.06 "Hg10 mi
9:56 AM77 °FSunny.14 mph47%30.06 "Hg10 mi
8:56 AM72 °FSunny.14 mph57%30.07 "Hg10 mi
7:56 AM66 °FSunny.13 mph70%30.07 "Hg10 mi
Weather by CustomWeather, © 2014

See weather overviewHow to use our weather pages